Lapse_Rate
2.9 2.9 2.7 2.0 1.4 1.3 1.4 1.6 1.8 1.6 1.4 1.5 1.9 3.0 4.0 6.1 6.0 5.3 3.8 2.9 3.5 3.6 3.9 4.6 5.0 5.4 5.2 4.6 4.0 4.2 4.5 4.4 3.9 4.5 4.5 3.7 3.5 3.2 2.7 2.5 2.1 1.8 2.2
2.9 3.3 3.7 2.8 1.6 1.6 1.7 2.1 2.3 1.8 1.7 1.5 2.8 3.5 3.9 5.8 5.6 4.7 4.7 3.7 3.5 3.3 3.9 3.4 3.6 3.9 4.3 3.8 3.3 3.4 4.2 4.8 3.7 5.3 5.5 5.6 5.5 3.6 3.4 2.8 3.2 3.0 2.7
2.8 3.6 3.9 3.2 2.2 2.2 1.6 2.0 1.9 1.7 1.4 0.9 1.5 2.7 3.5 3.3 3.3 2.9 2.9 3.0 2.8 2.6 2.5 2.7 2.6 2.2 2.8 3.3 3.2 2.8 2.8 4.3 4.0 3.1 5.5 6.0 5.9 4.6 5.0 4.5 4.4 4.0 4.0
3.4 3.6 3.8 3.7 3.3 2.4 1.8 2.0 2.3 2.4 2.5 0.9 0.8 1.5 2.5 2.1 2.2 2.4 3.2 3.0 2.8 2.8 3.0 3.2 3.4 3.0 2.9 3.2 3.0 2.8 3.0 3.7 3.8 4.6 4.3 3.9 4.8 5.5 5.6 5.3 6.0 4.1 3.9
2.9 3.2 3.5 3.8 3.9 2.8 2.4 2.0 2.5 2.5 1.9 1.5 1.5 1.2 1.3 1.1 1.5 1.2 1.4 1.4 1.9 2.2 2.1 2.0 2.4 2.4 2.4 2.4 2.1 1.8 1.6 2.4 3.7 3.8 3.8 4.7 4.7 5.1 5.0 6.3 6.4 4.0 3.6
2.4 2.9 3.4 4.0 3.7 2.8 2.6 2.4 2.5 2.5 1.9 1.7 1.5 1.5 1.3 1.7 2.2 1.8 1.3 1.4 1.7 1.6 1.9 2.3 1.6 2.1 1.6 1.9 1.7 1.6 1.5 1.4 2.1 2.1 1.8 2.8 4.6 5.5 5.5 6.3 6.7 6.8 5.3
2.1 2.5 3.1 3.5 3.5 3.3 2.9 2.9 2.7 2.9 1.8 1.5 1.2 0.9 1.0 1.2 1.3 1.0 1.0 1.4 1.1 0.8 1.0 1.6 1.4 1.6 2.2 2.4 2.3 2.3 1.9 1.5 1.5 1.3 2.0 2.4 2.6 2.7 3.0 5.3 6.2 5.5 5.0
2.2 2.4 3.0 3.1 2.9 3.1 2.7 2.3 2.1 2.2 1.7 1.0 0.8 0.4 0.5 0.2 0.2 0.2 0.1 -0.2 -0.0 0.2 0.2 0.3 0.6 0.8 1.2 1.3 1.2 0.7 0.2 0.3 0.3 1.0 1.3 2.5 3.5 4.5 6.2 5.8 5.5 5.8 6.7
2.0 2.4 3.0 2.8 2.7 2.7 2.6 2.0 1.6 1.6 1.1 0.8 0.3 0.3 0.2 0.6 0.3 0.3 0.0 -0.3 -0.4 1.4 -0.3 0.2 0.4 0.7 1.2 1.5 1.4 1.3 1.1 1.0 0.7 0.5 0.6 1.1 1.7 1.8 2.0 1.8 2.7 5.7 7.1
2.1 1.9 2.2 2.3 2.3 2.4 2.4 1.6 0.7 0.4 0.5 0.1 -0.1 0.7 0.3 0.0 0.1 0.1 0.2 -0.1 -0.5 -0.5 -0.4 -0.4 -0.3 0.1 0.3 0.6 0.8 1.1 1.3 1.4 0.9 1.5 1.3 1.7 2.1 2.7 3.4 3.5 3.9 5.1 6.4
0.7 0.7 0.8 1.1 1.8 1.9 1.3 0.9 0.3 0.2 -0.0 -0.2 -0.1 -0.1 -0.1 0.1 0.1 0.5 0.2 -0.1 -0.3 -0.7 -0.7 -0.9 -0.7 -0.5 -0.3 -0.3 0.2 0.5 1.0 1.1 1.3 1.3 1.6 1.9 2.0 2.5 2.7 3.1 3.8 5.0 6.0
0.2 0.2 0.2 0.9 1.0 0.8 0.6 0.2 -0.2 -1.0 -0.7 -0.2 -0.2 -0.3 0.0 0.2 0.3 0.3 0.2 -0.1 0.1 -0.3 -0.2 0.0 0.4 0.6 0.8 0.8 1.2 1.5 1.7 2.1 2.1 2.1 2.1 2.3 3.4 2.3 2.5 2.8 3.4 4.6 4.7
0.2 -0.3 -0.2 -0.0 0.1 0.2 0.3 0.2 -0.4 -0.7 -0.3 -0.6 -0.4 -0.1 -0.1 -0.1 0.0 0.1 0.3 0.3 -0.2 -0.5 -0.5 -0.2 0.2 0.4 0.7 1.1 1.7 2.1 2.3 2.6 2.6 2.5 2.3 2.3 2.3 2.1 2.3 2.7 3.1 3.6 5.1
-0.3 -0.3 -0.5 -0.5 -0.2 0.2 0.4 0.2 -0.0 -0.6 -0.2 -0.2 -0.3 -0.4 -0.5 -0.3 -0.3 -0.3 0.1 -0.2 -0.7 -0.4 -0.2 -0.0 0.3 0.7 0.7 1.3 2.0 2.4 2.5 2.6 3.2 3.0 3.0 2.8 2.6 2.5 2.9 4.0 3.8 5.3 4.6
-0.3 -0.5 -0.1 -0.3 -0.2 0.2 0.3 0.2 0.2 -0.2 -0.5 -0.2 -0.3 -0.5 0.1 -0.2 -0.4 -0.4 -0.4 -0.2 -0.2 -0.3 -0.4 -0.1 0.2 0.2 1.1 3.2 2.9 3.2 3.3 3.0 3.0 3.2 3.4 3.9 4.5 6.4 6.2 6.3 4.6 5.4 5.7
0.2 0.1 0.0 0.3 -0.1 0.1 0.5 0.2 0.3 -0.4 -0.8 -0.2 -0.0 -0.1 0.2 -0.2 -0.4 -0.2 -0.3 -0.3 -0.3 -0.4 -0.2 -0.0 0.0 0.3 2.2 4.1 6.0 5.8 3.4 2.9 3.1 2.7 2.9 3.1 5.0 4.8 6.3 6.7 7.5 8.7 7.0
0.7 -0.4 -0.7 -0.6 -0.3 0.1 0.4 0.1 0.1 -0.9 -0.6 -0.1 -0.5 -0.1 -0.1 -0.2 -0.2 -0.2 -0.3 -0.3 -0.5 -0.7 -0.4 -0.2 -0.0 0.3 0.4 4.2 5.8 6.8 3.4 3.2 2.8 3.2 3.2 3.6 5.0 4.7 3.6 5.3 7.4 7.3 8.3
0.7 0.1 -0.3 -0.9 -1.0 -0.4 -0.8 0.3 -0.9 -1.1 -0.4 -0.2 -0.5 -0.4 -0.6 -0.5 -0.5 -0.9 -0.8 -1.0 -1.2 -0.6 -0.4 -0.2 0.1 0.0 1.3 4.6 5.9 6.8 3.7 2.7 2.8 3.3 3.0 2.9 3.2 4.1 6.1 6.1 6.1 5.8 5.5
-0.1 -0.6 -1.0 -1.0 -1.2 -1.8 -1.2 -1.5 -1.7 -1.4 -1.1 -0.5 -0.6 -0.7 -0.9 -0.7 -0.4 -0.5 -0.6 -1.0 -1.1 -0.9 -0.5 0.4 0.4 0.0 0.4 3.8 5.4 5.6 3.6 3.5 3.2 3.4 3.5 3.9 4.7 6.6 9.2 8.0 6.9 6.2 6.0
-0.2 -0.5 -1.0 -1.5 -1.7 -1.8 -2.0 -2.0 -1.7 -1.9 -1.4 -0.7 -1.1 -1.0 -0.9 -0.5 -0.5 -0.0 -0.4 -1.0 -1.1 0.2 0.8 1.4 0.9 1.4 1.0 3.2 5.1 5.7 3.9 3.7 3.9 3.5 4.2 6.7 7.6 9.1 9.4 8.4 7.4 6.5 6.7
0.3 0.0 -0.8 -1.4 -1.2 -1.1 -2.1 -1.9 -2.3 -2.1 -1.3 -2.8 -1.9 -1.8 -1.7 -1.0 -0.3 -0.7 -1.1 -0.8 -0.8 0.0 -0.4 0.3 0.3 -0.0 0.8 1.1 5.2 6.4 5.3 5.3 6.4 6.8 6.4 5.7 8.0 9.0 9.2 9.0 7.6 7.4 8.3
0.7 0.6 -0.1 -0.5 -1.3 -2.2 -2.4 -2.2 -2.7 -2.6 -2.8 -2.3 -2.0 -1.6 -1.6 -0.4 -0.2 -0.9 -1.1 -0.8 -0.7 -0.7 -0.7 -0.5 0.2 1.3 1.3 3.9 4.9 6.3 7.1 9.0 8.2 7.9 7.8 6.9 8.3 8.4 8.8 8.7 8.7 9.3 9.2
0.2 -0.2 -0.4 -0.9 -1.3 -2.5 -2.7 -2.2 -2.5 -2.6 -2.8 -2.4 -2.2 -1.9 -1.4 -1.0 -0.9 -1.4 -0.9 -0.3 -0.3 -0.4 0.2 1.1 1.2 1.4 2.7 2.5 5.3 6.3 7.3 8.9 8.6 8.0 7.9 9.1 9.1 8.8 7.9 7.8 7.9 8.4 5.7
0.6 0.2 -0.3 -0.6 -1.0 -2.0 -2.2 -1.5 -2.3 -2.5 -2.2 -1.8 -1.8 -1.7 -1.2 -1.2 -1.0 -0.4 -0.3 0.3 0.1 0.2 1.4 1.9 2.4 1.9 2.3 2.7 3.1 4.1 4.8 7.0 7.6 7.6 6.5 7.5 8.4 7.6 7.3 6.3 5.8 5.7 5.7
1.2 0.6 0.0 -0.3 -0.4 -1.0 -1.5 -1.4 -1.8 -2.0 -1.5 -1.3 -1.2 -1.2 -0.8 0.2 -0.4 -0.3 0.2 1.0 0.2 0.5 1.3 2.1 2.8 2.6 2.5 3.8 5.8 8.7 8.3 7.9 8.1 8.5 6.5 5.5 5.2 5.2 5.1 5.2 5.5 5.5 5.5
1.1 0.5 0.0 -0.3 -0.4 -0.6 -0.9 -1.2 -1.8 -1.5 -1.1 -0.8 -0.8 -0.9 -0.3 -0.6 -0.0 -0.0 0.8 2.3 3.2 4.2 4.9 5.5 5.8 4.7 6.2 6.8 7.0 9.1 9.1 9.1 8.8 7.2 5.8 5.6 5.5 5.5 5.5 5.5 5.5 5.6 5.9
Wind_Speed
4 2 2 5 6 5 6 6 7 7 6 4 4 3 3 4 5 9 14 15 16 16 12 7 8 8 6 5 5 2 2 2 7 4 3 3 4 5 4 2 4 5 8
5 4 1 2 4 5 5 6 6 6 4 3 3 2 3 2 5 9 11 14 14 15 13 9 8 10 8 9 9 8 2 2 5 3 3 2 3 3 3 3 4 6 3
7 5 3 1 3 4 5 5 5 6 5 6 3 3 2 2 4 5 6 9 13 14 13 13 8 8 7 6 8 8 9 4 3 3 1 3 0 4 2 3 4 5 5
5 4 4 3 2 2 3 4 5 5 4 5 4 5 4 3 3 3 3 5 12 12 13 12 11 8 6 8 7 6 5 4 4 2 5 3 2 2 4 1 5 5 8
6 7 5 4 1 1 1 2 3 4 5 6 5 3 4 2 2 3 4 5 6 11 12 12 10 7 5 5 6 6 7 4 4 3 3 2 2 1 2 4 5 7 6
7 6 4 3 3 2 0 1 3 3 5 4 5 5 6 4 3 3 3 3 3 4 9 11 9 8 4 6 5 4 4 4 2 1 3 2 1 2 2 3 8 7 6
7 6 6 6 5 4 3 2 1 1 3 4 4 4 4 4 3 3 2 4 3 3 6 6 6 5 8 8 7 7 7 7 6 5 4 3 4 3 2 5 6 4 3
6 7 7 6 6 6 5 4 3 2 2 2 3 3 2 1 2 3 2 2 3 3 6 6 7 8 9 8 7 4 5 6 5 7 5 3 3 3 3 2 5 6 2
7 7 7 6 6 6 6 5 4 3 3 3 2 2 1 1 0 1 1 1 2 3 5 6 5 6 6 6 5 4 5 5 4 5 4 2 2 4 4 4 3 4 5
7 7 6 7 6 6 6 6 5 6 5 4 4 3 4 3 2 1 2 4 4 5 5 5 3 3 3 3 2 1 3 4 3 4 6 5 3 4 3 3 3 4 2
7 7 7 7 7 6 7 6 5 6 6 5 4 5 5 4 3 1 2 2 2 4 5 5 5 5 6 5 4 4 3 4 4 4 4 4 4 3 4 3 3 4 3
7 7 7 7 7 7 7 7 7 7 7 6 6 6 5 4 3 3 2 1 1 1 2 3 3 4 5 4 3 3 3 2 3 4 5 5 4 5 4 3 5 4 4
7 7 7 7 7 7 7 7 8 8 7 7 6 5 6 5 5 3 2 0 1 1 2 2 2 4 4 4 4 4 3 3 3 3 3 5 4 4 4 4 4 4 4
8 8 8 10 10 11 11 10 9 7 7 6 7 7 7 6 5 4 3 3 2 1 2 3 4 4 5 5 5 5 4 4 3 3 3 5 5 5 5 5 5 5 4
9 11 12 12 12 12 11 10 9 7 6 7 7 7 6 5 5 5 4 1 1 1 2 3 4 4 4 4 6 4 4 4 5 4 4 4 8 10 10 6 5 5 3
10 11 12 12 13 15 14 12 11 10 8 9 10 6 6 6 6 4 4 2 2 2 2 3 4 5 4 9 10 7 1 3 3 4 5 5 9 8 13 15 15 11 6
10 9 12 14 14 14 15 13 13 7 9 10 8 6 6 6 5 4 3 3 4 3 3 4 3 5 5 9 10 11 1 3 4 5 4 5 4 8 6 13 16 11 13
10 9 9 9 11 11 9 11 7 9 9 9 7 7 7 7 7 6 6 4 3 4 3 4 4 4 4 9 10 12 2 4 5 5 5 5 6 6 10 7 6 6 6
9 8 8 8 7 8 10 8 7 8 9 11 10 9 7 7 6 6 6 4 3 3 3 3 4 4 5 8 10 9 4 4 5 5 6 6 6 12 17 9 8 6 6
7 8 7 6 7 6 6 7 9 9 11 11 11 9 8 7 7 5 5 3 3 3 3 3 4 7 5 9 10 9 3 4 4 6 6 11 11 17 18 10 9 8 9
8 6 5 6 7 3 6 8 6 10 9 7 7 7 7 7 5 5 3 3 3 2 3 4 4 5 6 6 11 12 4 4 5 5 5 4 15 19 19 19 9 9 13
8 6 6 7 5 3 5 6 8 5 7 8 8 7 7 5 5 6 3 3 2 3 4 4 4 4 5 9 10 12 14 13 7 7 6 6 17 19 19 14 20 23 18
7 5 5 7 5 4 5 7 4 7 7 7 7 6 6 5 5 5 4 3 3 3 4 3 3 4 3 4 11 13 14 14 9 6 11 20 19 18 11 17 20 17 4
7 4 6 7 7 4 5 5 6 6 7 7 7 6 5 5 4 3 3 3 3 3 4 4 4 4 3 4 4 5 6 10 9 11 8 11 13 15 14 10 8 5 5
6 5 6 7 8 5 6 6 6 7 6 6 5 5 4 5 4 4 3 4 4 5 3 4 4 4 4 4 10 11 7 6 9 13 3 2 4 6 6 6 6 6 6
6 7 7 7 8 6 6 6 6 7 7 6 5 5 4 4 4 3 3 8 10 11 13 13 9 4 10 15 16 17 18 17 18 7 3 6 6 6 7 7 7 7 10
Wind_Direction
184 142 28 1 349 2 360 357 344 342 348 343 346 341 357 11 26 26 25 17 10 6 9 4 5 351 31 26 10 354 351 305 359 300 304 290 258 258 260 271 262 253 252
183 183 246 5 350 346 355 351 341 340 334 316 311 306 319 19 34 23 28 19 22 17 18 19 18 17 7 16 17 11 343 64 37 355 314 350 318 7 317 265 265 266 269
184 194 223 312 335 353 354 354 339 343 336 334 304 328 333 21 26 24 26 16 23 27 29 27 26 24 30 22 23 12 15 1 14 13 66 350 311 323 292 315 307 336 335
180 190 213 241 283 359 354 352 353 345 354 359 13 33 46 41 7 7 2 24 29 22 23 31 29 33 26 25 14 17 23 7 30 340 26 24 298 296 296 130 344 358 340
192 205 215 230 123 11 338 356 5 13 10 22 29 42 51 43 25 13 26 23 18 28 28 32 27 29 25 35 26 10 29 23 40 357 2 293 290 144 285 301 307 323 315
210 216 219 226 213 193 147 40 26 9 14 22 24 38 47 33 38 26 27 9 7 24 24 26 16 15 15 14 18 13 32 32 59 65 53 34 1 348 333 314 321 308 298
208 219 224 221 210 210 212 227 224 309 0 19 17 26 37 41 53 37 26 26 17 22 17 15 12 9 8 10 7 14 8 8 14 15 4 357 5 3 309 303 301 283 306
216 217 219 212 212 214 211 227 253 287 355 11 340 7 17 357 25 23 26 34 35 36 27 29 29 20 14 12 15 17 9 14 9 15 3 342 331 328 329 295 325 313 273
218 217 220 220 222 223 219 216 227 232 229 224 234 247 306 1 56 331 4 26 31 29 34 36 31 27 28 27 26 27 14 13 3 5 356 332 327 340 349 357 352 308 313
224 220 221 225 225 223 220 213 213 221 227 223 223 222 236 230 236 261 21 20 15 16 16 20 32 30 40 36 52 39 19 33 6 9 1 349 333 326 325 306 289 279 258
220 216 219 219 220 220 214 221 226 227 234 227 226 222 225 221 225 246 12 20 9 3 7 2 1 2 358 357 4 358 17 17 3 358 356 331 324 324 318 314 294 274 259
225 218 219 214 220 219 214 217 223 224 223 224 221 227 225 220 218 210 204 181 22 10 360 357 355 349 342 333 323 323 319 312 329 332 343 331 336 317 302 290 289 279 284
234 229 223 214 217 220 218 219 222 223 219 213 217 228 228 223 227 219 206 310 356 340 344 355 339 324 325 319 306 298 290 272 270 295 313 310 317 308 304 307 298 294 303
221 222 227 219 215 216 215 218 228 218 215 206 211 220 219 216 214 200 207 221 216 290 338 332 327 329 323 308 298 302 296 283 270 284 295 307 312 300 304 305 306 308 311
228 221 225 223 221 223 223 223 227 212 196 204 212 221 219 204 197 199 211 233 278 307 303 315 313 308 303 297 296 286 292 288 287 295 296 305 309 317 318 324 301 300 308
245 235 228 228 222 220 222 217 223 215 181 203 215 202 198 192 200 207 211 230 268 291 288 288 284 306 306 308 312 320 325 322 309 293 298 301 308 307 323 320 317 322 326
255 242 229 226 228 223 218 214 216 187 191 203 204 190 191 192 199 205 205 241 249 236 264 274 282 292 294 300 312 314 19 320 310 299 303 303 292 318 300 304 309 308 313
263 256 243 234 232 229 212 217 187 185 192 203 193 180 185 185 189 190 206 210 217 225 246 263 273 280 292 305 312 313 308 297 294 291 292 286 293 302 307 287 282 274 278
266 259 248 239 233 212 211 195 184 183 184 199 191 184 179 182 187 203 207 206 202 221 240 243 268 267 284 298 307 312 294 290 292 286 289 276 282 298 307 307 290 284 281
281 286 285 264 244 241 186 186 204 191 202 199 188 171 172 177 188 202 203 202 192 217 240 263 255 272 282 293 297 307 279 283 283 280 267 289 304 308 310 311 306 297 291
285 299 306 274 270 239 186 212 194 210 210 149 149 159 166 172 183 181 196 194 210 237 260 258 270 269 264 273 292 300 284 265 272 275 279 265 299 306 307 306 307 291 300
304 302 294 293 298 248 202 221 214 182 151 143 150 159 158 169 173 181 193 219 211 248 264 271 276 259 266 282 288 297 297 297 302 293 286 277 291 298 308 315 310 305 303
288 284 271 288 282 250 209 219 210 158 146 147 155 158 161 174 170 173 186 210 220 236 264 258 269 271 268 273 292 298 298 296 298 290 286 305 311 309 316 301 301 311 305
289 279 276 271 274 222 218 220 172 155 146 152 158 158 166 174 178 176 173 207 223 236 251 262 264 269 270 265 263 270 275 283 287 284 283 289 307 307 301 304 297 288 285
291 280 266 260 258 213 215 196 168 152 156 152 160 171 175 182 186 197 196 212 221 209 234 249 251 264 277 270 288 304 304 293 293 308 296 291 298 298 294 291 286 283 281
298 297 279 266 262 218 216 193 175 168 162 170 172 179 176 182 187 189 229 249 244 259 266 273 273 257 279 299 303 305 307 308 307 309 299 301 298 289 289 289 290 285 286